Theta_e
315 316 317 315 315 315 315 315 315 315 316 317 317 317 318 318 318 318 317 317 317 318 318 318 319 319 320 318 319 316 329 336 347 349 350 350 348 344 346 344 341 334 337 339
316 317 314 314 314 314 314 315 315 316 317 318 318 319 319 319 319 318 317 317 317 317 318 318 318 319 320 321 316 325 331 338 341 347 348 349 348 346 346 344 337 334 334 330
316 316 314 314 314 314 315 316 317 317 317 317 317 319 319 320 320 318 317 317 318 317 317 317 318 318 319 321 323 329 329 341 340 346 348 348 349 347 346 344 341 334 334 331
316 315 315 314 314 315 316 315 316 317 318 319 318 322 319 319 319 320 319 319 318 318 317 317 318 318 319 319 324 328 334 340 341 345 345 349 348 347 347 344 342 337 334 332
316 315 315 315 314 315 316 316 317 318 319 319 319 320 320 319 319 319 320 319 319 319 319 318 319 318 319 319 320 326 331 339 342 340 346 345 343 344 345 346 339 340 335 333
316 315 315 315 314 314 314 316 317 318 320 322 320 320 319 319 319 319 320 319 319 319 319 318 318 318 319 319 319 322 332 337 341 343 338 341 345 343 346 345 343 343 339 333
317 316 315 314 315 314 314 316 323 322 325 324 319 319 319 319 318 318 318 319 319 319 319 319 319 319 319 319 320 321 327 336 340 339 339 338 341 341 344 345 344 343 341 338
318 318 315 314 315 314 314 317 323 323 321 320 318 319 319 318 318 316 317 318 317 318 319 319 319 319 319 319 320 321 323 334 338 338 338 337 338 343 345 345 344 343 342 339
319 317 316 315 314 314 316 319 318 322 320 322 319 318 318 318 317 318 318 318 318 319 320 320 319 319 319 320 320 320 323 329 337 338 336 335 338 342 343 342 340 338 337 335
317 319 315 314 314 315 316 317 319 321 322 322 318 318 317 317 317 318 318 319 319 319 319 319 319 320 321 323 322 321 322 327 333 337 337 338 335 342 341 339 339 336 332 332
316 319 316 316 316 314 315 319 318 317 321 321 320 318 318 317 318 318 319 318 318 318 318 318 318 318 319 320 322 325 322 323 329 334 336 337 341 339 336 333 337 332 332 333
315 317 319 316 314 314 315 317 318 324 319 319 319 320 317 318 317 317 318 317 316 316 316 316 316 316 317 318 320 322 327 321 323 331 335 336 339 335 337 333 338 338 337 335
314 316 318 317 314 316 315 314 315 316 318 320 322 318 315 315 316 315 316 316 316 316 316 315 315 315 315 315 317 319 320 327 323 327 332 336 337 338 335 335 336 338 336 338
314 317 317 318 316 315 316 315 314 316 319 319 319 317 317 316 316 315 314 314 314 315 315 315 315 315 315 315 316 317 319 322 326 326 329 333 337 338 338 334 336 338 337 338
314 316 315 314 313 314 314 314 314 315 316 319 317 316 315 314 314 314 312 313 313 313 314 314 314 313 314 314 315 316 318 319 329 326 329 332 337 336 335 336 334 335 336 337
313 314 313 314 313 313 314 314 315 314 313 314 315 315 313 312 311 312 311 311 311 311 310 311 311 312 312 313 314 314 316 318 325 328 330 333 337 339 330 326 333 327 335 337
314 314 314 314 313 313 317 316 313 313 313 315 315 314 313 312 311 310 309 309 309 309 309 309 310 311 311 313 313 314 315 317 319 330 330 332 336 333 327 325 322 332 334 328
316 315 315 316 314 317 313 313 314 314 312 313 314 313 312 310 307 306 306 306 306 306 306 308 308 309 309 312 312 312 313 315 319 332 330 333 332 332 325 320 321 332 327 327
315 315 315 314 316 314 314 313 313 312 312 311 312 309 307 305 304 303 303 303 304 305 306 305 305 307 308 310 310 312 313 316 325 333 330 333 334 333 329 323 327 326 324 324
314 315 316 316 316 317 317 313 311 311 314 307 307 304 303 302 303 305 305 303 301 303 303 305 306 307 307 309 310 310 313 316 327 332 333 333 332 333 333 330 326 329 326 324
316 315 314 313 316 314 314 313 311 315 313 305 303 301 300 301 301 301 300 301 302 301 301 303 305 308 307 308 309 311 314 321 330 331 332 331 333 331 328 324 325 329 326 318
316 317 316 315 315 314 312 311 308 307 304 302 300 300 300 300 300 301 303 306 310 304 303 305 307 309 310 310 311 313 318 327 332 332 329 330 329 328 324 325 325 325 324 317
316 315 316 314 317 315 313 309 308 304 301 300 298 298 298 301 305 307 310 311 311 309 308 307 309 312 313 313 314 318 327 329 331 329 329 329 326 326 324 325 327 323 319 317
314 313 316 315 314 315 310 309 304 302 300 299 299 300 303 306 311 317 315 313 312 312 311 312 313 316 320 322 323 324 325 330 329 327 327 325 324 321 318 323 325 324 318 316
314 314 315 315 315 307 309 304 303 301 300 299 300 303 305 313 319 318 318 316 315 314 313 314 316 321 322 324 325 325 326 325 325 325 324 318 318 315 313 317 318 319 317 315
314 316 316 317 310 304 304 304 302 300 300 300 302 304 308 312 315 318 317 319 319 317 317 318 319 320 320 321 320 321 323 323 324 319 317 314 312 311 313 312 309 310 312 310
Wind_Speed
9 10 10 14 12 13 17 22 26 26 23 23 27 27 27 28 30 31 31 31 32 32 27 25 24 20 15 17 20 24 26 29 32 35 33 37 38 34 27 26 29 30 25 24
11 10 6 10 12 17 21 23 25 24 20 18 24 30 29 26 26 32 31 33 33 32 30 29 27 23 19 17 20 22 24 26 33 35 37 33 34 31 27 25 31 31 31 28
11 13 10 12 17 20 19 19 20 22 23 22 25 30 20 18 17 26 33 34 35 36 33 31 29 29 24 19 20 21 24 25 31 36 35 33 37 25 25 26 28 34 32 30
9 6 13 17 18 16 17 16 21 23 21 19 19 24 25 21 20 17 22 27 30 31 32 32 32 32 30 25 19 19 20 24 26 35 35 37 28 32 29 29 28 33 34 31
8 14 18 16 11 13 18 17 19 24 24 24 24 13 19 17 18 12 8 11 16 20 25 28 30 32 33 30 26 22 20 23 26 29 33 37 30 27 25 26 34 31 33 30
15 18 15 10 14 12 19 17 19 25 13 9 15 8 10 9 10 8 5 4 4 14 15 20 26 27 31 33 29 25 23 23 25 28 33 37 32 30 26 26 28 31 27 35
20 6 5 9 14 18 16 13 8 5 5 10 10 11 11 17 12 9 10 12 6 6 8 12 19 23 25 28 31 28 25 23 23 26 30 36 35 33 33 34 31 29 26 27
10 17 4 9 22 22 18 9 6 8 12 19 20 9 7 17 14 9 10 12 9 5 1 4 10 14 18 23 25 27 26 23 23 24 28 29 33 34 35 31 30 26 26 26
13 11 23 18 9 11 9 10 10 7 19 13 9 14 14 4 3 2 5 5 6 2 1 3 1 3 9 13 15 20 25 24 23 22 23 24 27 32 36 35 37 32 28 27
12 15 14 7 21 7 10 7 6 4 6 13 11 18 13 5 11 4 2 2 2 3 1 3 4 4 3 5 9 13 15 23 24 23 22 21 23 34 38 40 39 42 32 27
15 5 12 22 17 19 11 5 6 4 6 10 15 8 11 8 14 18 4 5 7 7 7 8 7 7 8 6 5 7 11 17 22 24 23 22 25 31 36 34 37 44 47 43
10 5 16 23 22 15 12 15 13 5 13 14 12 19 21 15 10 13 20 10 11 12 13 13 11 11 11 11 10 6 6 12 20 23 23 23 24 32 39 35 35 38 48 43
3 3 9 13 6 6 11 17 18 18 15 20 13 14 17 18 19 26 26 25 22 19 19 21 20 18 17 16 14 11 8 6 16 21 23 23 21 29 33 28 54 48 38 44
24 9 15 15 23 24 27 26 23 18 8 20 19 28 25 24 25 22 25 28 30 33 33 27 29 27 22 20 17 15 12 8 11 20 24 24 20 23 31 34 28 39 39 37
5 13 19 23 24 25 28 30 26 21 20 10 21 25 27 25 24 24 32 31 28 31 35 36 35 35 29 25 22 17 14 10 9 20 25 25 21 26 29 29 27 25 29 37
4 10 16 24 24 25 27 26 17 13 14 19 22 30 28 24 28 27 27 30 34 35 39 41 40 36 32 29 25 19 17 13 8 18 25 26 29 32 36 30 21 14 36 36
9 6 9 20 20 25 16 3 9 14 15 12 18 32 28 25 21 24 33 37 36 37 38 38 36 33 32 28 24 21 17 15 11 17 26 30 33 32 32 34 25 22 31 43
9 12 10 14 21 15 15 12 3 10 17 25 27 28 24 24 31 40 42 45 47 46 45 44 39 34 31 29 26 21 19 18 14 20 28 33 36 34 34 26 26 31 40 46
10 10 6 5 12 22 14 5 3 10 26 20 15 17 22 33 37 40 36 37 37 35 33 37 39 38 33 28 23 20 21 19 18 23 31 39 38 39 39 34 37 46 47 44
7 10 10 12 13 11 10 12 23 20 19 4 21 23 25 25 16 22 28 26 28 28 28 22 23 32 38 34 28 25 23 20 22 27 35 40 42 45 48 47 51 49 43 39
11 12 11 11 12 14 11 21 24 7 16 35 37 33 33 21 25 48 51 48 43 35 36 31 23 26 31 31 28 27 23 22 26 32 42 40 49 44 52 56 56 52 49 46
7 6 7 8 15 10 27 16 7 13 30 38 43 41 40 43 48 44 42 35 23 20 21 24 19 19 22 26 26 26 23 24 27 41 43 48 49 57 58 59 58 55 49 51
4 5 7 7 10 29 32 19 17 32 34 41 43 47 45 45 44 41 29 12 3 14 18 22 19 16 19 23 26 23 24 24 43 46 45 51 53 59 60 63 61 46 54 57
11 16 9 15 11 21 25 23 31 34 37 45 45 44 43 41 40 14 8 6 10 12 13 14 14 15 17 20 21 24 29 43 44 49 51 50 56 59 60 62 60 61 60 57
17 15 13 16 21 22 19 28 33 39 44 41 44 42 40 29 13 14 13 15 14 15 15 14 18 19 21 30 36 42 47 47 47 47 48 52 55 55 56 59 64 63 59 56
9 10 9 13 14 10 24 34 36 36 41 42 39 39 31 21 11 13 17 15 17 19 19 18 19 20 24 35 40 44 43 42 51 55 56 53 53 53 59 60 55 54 57 53
Wind_Direction
318 294 296 325 311 300 295 290 291 291 297 295 287 284 279 278 272 263 261 257 248 249 247 241 234 234 238 225 225 227 220 218 214 211 207 210 211 206 201 203 207 216 204 204
288 283 346 300 292 293 295 292 289 298 307 306 296 285 285 281 271 264 259 255 247 246 241 239 233 231 229 228 228 225 218 220 212 213 212 214 214 205 206 206 211 214 213 212
301 301 313 292 303 300 294 290 300 305 304 289 284 280 285 287 270 259 254 252 251 243 239 233 230 226 224 225 220 216 218 214 212 213 214 214 213 198 198 203 207 208 210 210
290 311 299 307 302 309 302 315 305 295 300 296 307 291 292 288 281 270 265 252 247 239 231 228 224 222 221 220 221 217 215 212 216 212 214 207 202 203 206 202 201 210 211 209
270 313 315 305 310 318 299 306 302 289 286 287 282 267 290 281 272 289 274 257 244 230 225 217 217 218 218 219 218 221 214 212 210 212 212 215 210 210 209 203 205 204 207 211
272 278 276 294 309 290 302 291 296 280 276 276 279 309 301 316 345 337 346 26 328 220 213 214 215 217 219 219 219 219 218 216 211 211 219 213 212 204 205 198 201 200 200 208
315 264 247 286 302 304 304 310 296 274 223 274 339 293 295 305 318 318 315 296 278 225 231 213 214 219 221 221 222 222 220 219 214 213 213 218 219 214 208 205 197 195 192 199
313 314 354 317 304 296 297 298 271 296 308 305 313 280 309 331 308 279 300 269 244 230 316 256 232 224 226 225 226 227 220 219 218 214 216 217 223 220 208 198 191 192 191 197
317 288 317 303 322 307 308 269 293 283 268 265 251 252 241 198 76 93 49 25 208 193 358 22 5 233 237 238 228 231 224 219 218 215 217 217 229 223 212 207 202 198 209 206
298 301 304 287 311 279 238 275 277 222 281 298 294 307 293 17 348 42 84 35 171 192 322 27 22 358 323 267 243 235 222 217 218 219 221 219 223 223 221 216 208 201 201 204
312 248 274 301 291 300 279 249 236 274 273 287 299 285 19 341 311 305 317 277 286 289 290 315 326 330 340 335 290 253 232 215 214 217 221 221 218 218 208 212 202 188 201 208
322 276 281 298 289 268 285 287 286 262 278 289 290 283 279 292 313 322 303 274 267 276 279 286 300 311 313 321 320 316 290 219 216 216 214 219 219 213 217 218 214 202 204 201
301 265 298 299 293 183 285 302 290 282 280 272 265 271 298 303 300 290 289 281 264 265 271 280 285 290 296 303 301 301 307 264 217 214 216 219 214 211 216 222 207 201 195 195
289 260 263 276 289 304 297 293 282 271 265 286 282 290 301 295 290 295 295 290 284 283 280 273 275 279 281 285 287 285 289 297 236 214 216 220 211 196 194 188 206 196 196 194
266 275 293 288 288 288 285 287 295 289 276 273 287 290 293 305 310 305 300 294 286 278 268 266 269 272 272 271 275 278 273 277 262 216 212 213 208 189 195 190 192 204 219 196
251 285 296 287 286 290 304 303 294 291 286 284 286 289 290 309 299 295 288 280 274 269 269 266 264 263 262 263 261 265 264 264 258 217 210 203 198 194 199 195 191 224 208 210
267 261 288 289 302 308 291 356 300 285 290 279 280 290 301 294 292 295 291 283 278 275 270 265 262 257 256 249 251 254 258 256 251 215 205 203 195 200 186 196 201 223 204 179
249 262 273 287 305 296 326 3 315 250 267 284 291 287 290 293 296 284 281 278 274 270 266 257 252 247 249 243 248 249 249 248 239 204 200 200 201 198 203 203 186 207 183 175
237 282 284 286 301 291 292 22 315 283 288 286 290 292 287 293 294 282 272 265 262 265 261 253 246 241 240 234 235 236 238 235 220 204 194 194 193 195 190 187 189 180 174 158
256 260 270 296 288 300 327 321 322 323 291 88 318 304 301 303 292 285 299 280 264 250 250 259 242 232 228 229 231 234 229 226 209 195 183 190 191 190 184 183 176 173 171 173
300 302 292 291 285 289 321 344 334 308 320 310 308 304 299 293 279 284 290 287 280 258 247 239 244 223 218 220 220 217 213 216 194 187 182 185 183 191 178 168 173 165 172 160
290 293 301 301 303 289 337 343 335 305 304 303 306 306 302 298 298 298 299 299 291 232 213 202 202 198 200 200 200 203 204 197 188 183 184 176 179 173 167 172 169 167 164 157
285 257 286 287 282 300 315 325 320 320 304 308 308 309 308 303 303 304 305 337 117 164 182 191 205 202 193 190 191 193 183 197 181 173 180 174 171 171 172 173 167 165 165 158
297 303 270 291 272 312 321 325 326 317 314 315 318 316 315 309 315 351 13 48 93 123 147 168 177 173 172 179 184 192 188 175 179 166 166 173 169 165 166 170 171 164 164 158
283 289 279 284 298 324 312 325 319 321 326 328 333 328 327 335 22 32 60 81 94 107 120 125 139 155 149 143 156 162 167 168 164 164 164 158 160 157 154 159 160 161 163 164
285 294 304 302 327 307 308 317 324 327 330 335 336 342 359 22 36 66 72 83 108 119 134 142 146 142 145 149 139 150 164 168 159 153 154 150 148 147 152 154 147 151 159 159